Change the Weather History Date:

Monday, July 8, 2013

  Actual Average Record
Temperature  
Mean Temperature 78 °F -  
Max Temperature 84 °F 90 °F 101 °F (1980)
Min Temperature 73 °F 73 °F 68 °F (1950)
Cooling Degree Days 12    
Growing Degree Days 28 (Base 50)    
Moisture  
Dew Point 73 °F    
Average Humidity 93    
Maximum Humidity 100    
Minimum Humidity 74    
Precipitation  
Precipitation 1.55 in - - ()
Sea Level Pressure  
Sea Level Pressure 30.15 in    
Wind  
Wind Speed 2 mph (SSE)    
Max Wind Speed 15 mph    
Max Gust Speed 16 mph    
Visibility 5 miles    
Events Fog , Rain , Thunderstorm    
Averages and records for this station are not official NWS values.
T = Trace of Precipitation, MM = Missing Value Source: NWS Daily Summary

Daily Weather History Graph

Daily Weather History Graph

Search for Another Location

Airport or City:

Trip Planner

Search our weather history database for the weather conditions in past years. The results will help you decide how hot, cold, wet, or windy it might be!

Date:

Astronomy

Jul. 08, 2013 Rise Set
Actual Time 5:58 AM CDT 7:59 PM CDT
Civil Twilight 5:31 AM CDT 8:26 PM CDT
Nautical Twilight 4:58 AM CDT 9:00 PM CDT
Astronomical Twilight 4:22 AM CDT 9:35 PM CDT
Moon 6:21 AM CDT (7/8) 8:09 PM CDT (7/8)
Length of Visible Light 14h 55m
Length of Day
14h 00m
New Moon, 0% of the Moon is Illuminated
Jul 8
New Moon
Jul 15
First Quarter
Jul 22
Full
Jul 29
Last Quarter
Aug 6
New

Hourly Weather History & Observations

Time (CDT) Temp. Heat Index Dew Point Humidity Pressure Visibility Wind Dir Wind Speed Gust Speed Precip Events Conditions
12:01 AM 73.4 °F - 71.6 °F 94% 30.14 in 3.0 mi WSW 3.5 mph - 0.01 in Rain Light Rain
12:53 AM 73.9 °F - 72.0 °F 93% 30.12 in 7.0 mi Calm Calm - 0.07 in Rain Light Rain
1:53 AM 73.9 °F - 72.0 °F 93% 30.12 in 10.0 mi SW 4.6 mph - 0.00 in   Overcast
2:53 AM 75.0 °F - 73.0 °F 94% 30.10 in 10.0 mi Calm Calm - 0.00 in   Overcast
3:53 AM 73.9 °F - 73.0 °F 97% 30.09 in 10.0 mi ENE 3.5 mph - N/A   Mostly Cloudy
4:53 AM 73.9 °F - 72.0 °F 93% 30.10 in 10.0 mi ENE 3.5 mph - N/A   Scattered Clouds
5:53 AM 73.9 °F - 72.0 °F 93% 30.12 in 9.0 mi Calm Calm - 0.01 in Rain Light Rain
6:53 AM 73.9 °F - 72.0 °F 93% 30.14 in 10.0 mi Calm Calm - 0.02 in Rain Light Rain
7:53 AM 75.0 °F - 73.0 °F 94% 30.16 in 10.0 mi North 3.5 mph - 0.00 in   Partly Cloudy
8:53 AM 77.0 °F - 75.0 °F 94% 30.18 in 10.0 mi Calm Calm - N/A   Mostly Cloudy
9:53 AM 80.1 °F 84.5 °F 73.9 °F 81% 30.18 in 10.0 mi East 3.5 mph - N/A   Mostly Cloudy
10:53 AM 82.9 °F 90.2 °F 75.0 °F 77% 30.18 in 10.0 mi Variable 3.5 mph - N/A   Partly Cloudy
11:53 AM 82.9 °F 89.4 °F 73.9 °F 74% 30.18 in 10.0 mi SSW 3.5 mph - N/A   Mostly Cloudy
12:17 PM 80.6 °F 85.4 °F 73.4 °F 79% 30.17 in 1.8 mi ESE 3.5 mph - 0.06 in Rain Heavy Rain
12:37 PM 75.2 °F - 71.6 °F 89% 30.17 in 3.0 mi South 6.9 mph 16.1 mph 0.21 in Rain Light Rain
12:47 PM 75.2 °F - 71.6 °F 89% 30.17 in 1.8 mi South 6.9 mph - 0.29 in Rain Heavy Rain
12:53 PM 75.0 °F - 72.0 °F 90% 30.17 in 1.5 mi South 5.8 mph - 0.31 in Rain Heavy Rain
12:57 PM 75.2 °F - 71.6 °F 89% 30.17 in 5.0 mi SSW 8.1 mph - 0.01 in Rain Rain
1:53 PM 75.0 °F - 73.0 °F 94% 30.17 in 5.0 mi SSE 11.5 mph - 0.37 in Rain Rain
1:58 PM 75.2 °F - 71.6 °F 89% 30.16 in 1.8 mi SSE 15.0 mph - 0.06 in Rain Heavy Rain
2:27 PM 73.4 °F - 71.6 °F 94% 30.18 in 1.2 mi ENE 5.8 mph - 0.39 in Rain , Thunderstorm Heavy Rain
2:53 PM 75.0 °F - 73.9 °F 96% 30.16 in 1.8 mi Calm Calm - 0.70 in Rain , Thunderstorm Heavy Thunderstorms and Rain
2:55 PM 75.2 °F - 73.4 °F 94% 30.16 in 3.0 mi Calm Calm - 0.00 in Rain , Thunderstorm Heavy Thunderstorms and Rain
3:42 PM 75.2 °F - 73.4 °F 94% 30.15 in 4.0 mi Calm Calm - 0.06 in Rain Light Rain
3:53 PM 75.0 °F - 73.0 °F 94% 30.15 in 6.0 mi Calm Calm - 0.06 in Rain Light Rain
4:53 PM 75.9 °F - 73.9 °F 94% 30.15 in 7.0 mi Calm Calm - 0.01 in   Mostly Cloudy
5:53 PM 77.0 °F - 75.0 °F 94% 30.14 in 10.0 mi Calm Calm - 0.00 in   Mostly Cloudy
6:53 PM 78.1 °F - 75.0 °F 90% 30.14 in 10.0 mi Calm Calm - N/A   Scattered Clouds
7:53 PM 75.9 °F - 75.0 °F 97% 30.14 in 5.0 mi Calm Calm - N/A   Clear
8:00 PM 75.2 °F - 75.2 °F 100% 30.13 in 5.0 mi Calm Calm - N/A   Partly Cloudy
8:17 PM 75.2 °F - 73.4 °F 94% 30.14 in 1.5 mi Calm Calm - N/A   Partly Cloudy
8:21 PM 75.2 °F - 73.4 °F 94% 30.14 in 0.8 mi Calm Calm - N/A   Mist
8:28 PM 75.2 °F - 73.4 °F 94% 30.14 in 0.5 mi Calm Calm - N/A Fog Fog
8:35 PM 75.2 °F - 73.4 °F 94% 30.14 in 1.2 mi Calm Calm - N/A   Scattered Clouds
8:39 PM 75.2 °F - 73.4 °F 94% 30.14 in 3.0 mi Calm Calm - N/A   Scattered Clouds
8:49 PM 75.2 °F - 73.4 °F 94% 30.14 in 1.8 mi Calm Calm - N/A   Scattered Clouds
8:53 PM 75.0 °F - 73.9 °F 96% 30.14 in 1.5 mi Calm Calm - N/A   Scattered Clouds
9:03 PM 75.2 °F - 73.4 °F 94% 30.14 in 3.0 mi Calm Calm - N/A   Partly Cloudy
9:24 PM 73.4 °F - 73.4 °F 100% 30.15 in 1.8 mi Calm Calm - N/A   Clear
9:31 PM 75.2 °F - 73.4 °F 94% 30.16 in 1.5 mi Calm Calm - N/A   Scattered Clouds
9:43 PM 75.2 °F - 73.4 °F 94% 30.16 in 2.0 mi Calm Calm - N/A   Mostly Cloudy
9:53 PM 73.9 °F - 73.0 °F 97% 30.17 in 2.5 mi North 3.5 mph - N/A   Mostly Cloudy
10:01 PM 73.4 °F - 73.4 °F 100% 30.17 in 6.0 mi North 3.5 mph - N/A   Scattered Clouds
10:25 PM 73.4 °F - 73.4 °F 100% 30.17 in 1.8 mi Calm Calm - N/A   Mostly Cloudy
10:35 PM 73.4 °F - 73.4 °F 100% 30.17 in 3.0 mi Calm Calm - N/A   Mostly Cloudy
10:43 PM 73.4 °F - 73.4 °F 100% 30.17 in 1.5 mi SE 3.5 mph - N/A   Overcast
10:50 PM 73.4 °F - 73.4 °F 100% 30.16 in 0.5 mi Calm Calm - N/A Fog Fog
10:53 PM 73.9 °F - 73.0 °F 97% 30.17 in 0.5 mi Calm Calm - N/A Fog Fog
11:45 PM 73.4 °F - 73.4 °F 100% 30.17 in 0.8 mi Calm Calm - N/A   Mist
11:53 PM 73.0 °F - 72.0 °F 96% 30.17 in 0.5 mi Calm Calm - N/A Fog Fog